This is the latest recevied weather packets stored in our database for station/object OK2ILA-1. If no packets are shown the sender has not sent any weather packets the latest 1 day(s).
| Time | Temp. | Humidity | Pressure | Rain* | Wind** | Luminosity | Snow |
|---|---|---|---|---|---|---|---|
| 1778002755 | 22.22° C | 100% | 1007.4 hPa | 0 mm | 1.79 m/s, 156° | - | - |
| 1778002035 | 22.78° C | 100% | 1007.3 hPa | 0 mm | 3.58 m/s, 163° | - | - |
| 1778001314 | 23.33° C | 100% | 1007.3 hPa | 0 mm | 4.02 m/s, 182° | - | - |
| 1778000593 | 23.33° C | 100% | 1007.3 hPa | 0 mm | 2.24 m/s, 163° | - | - |
| 1777999873 | 23.89° C | 100% | 1007.3 hPa | 0 mm | 4.47 m/s, 149° | - | - |
| 1777999152 | 24.44° C | 100% | 1007.4 hPa | 0 mm | 7.15 m/s, 156° | - | - |
| 1777998431 | 24.44° C | 100% | 1007.4 hPa | 0 mm | 4.47 m/s, 167° | - | - |
| 1777997711 | 25° C | 100% | 1007.5 hPa | 0 mm | 5.36 m/s, 161° | - | - |
| 1777996990 | 25° C | 100% | 1007.5 hPa | 0 mm | 5.81 m/s, 163° | - | - |
| 1777996269 | 25.56° C | 100% | 1007.6 hPa | 0 mm | 4.47 m/s, 187° | - | - |
| 1777995549 | 25.56° C | 100% | 1007.6 hPa | 0 mm | 7.15 m/s, 180° | - | - |
| 1777994828 | 25.56° C | 100% | 1007.5 hPa | 0 mm | 4.02 m/s, 184° | - | - |
| 1777994107 | 26.11° C | 100% | 1007.6 hPa | 0 mm | 5.36 m/s, 151° | - | - |
| 1777993387 | 26.11° C | 100% | 1007.7 hPa | 0 mm | 3.58 m/s, 171° | - | - |
| 1777992666 | 26.11° C | 100% | 1007.6 hPa | 0 mm | 4.92 m/s, 149° | - | - |
| 1777991945 | 25.56° C | 100% | 1007.8 hPa | 0 mm | 8.49 m/s, 188° | - | - |
| 1777991225 | 26.11° C | 100% | 1007.9 hPa | 0 mm | 8.05 m/s, 201° | - | - |
| 1777990504 | 26.11° C | 100% | 1008 hPa | 0 mm | 4.47 m/s, 175° | - | - |
| 1777989783 | 25.56° C | 100% | 1008.1 hPa | 0 mm | 5.81 m/s, 172° | - | - |
| 1777989063 | 26.67° C | 100% | 1008.1 hPa | 0 mm | 9.83 m/s, 205° | - | - |
| 1777988342 | 25.56° C | 100% | 1008.2 hPa | 0 mm | 6.71 m/s, 180° | - | - |
| 1777987621 | 25° C | 100% | 1008.3 hPa | 0 mm | 6.26 m/s, 158° | - | - |
| 1777986900 | 25° C | 100% | 1008.3 hPa | 0 mm | 8.05 m/s, 153° | - | - |
| 1777986185 | 25.56° C | 100% | 1008.2 hPa | 0 mm | 4.92 m/s, 165° | - | - |
| 1777985459 | 26.11° C | 100% | 1008.4 hPa | 0 mm | 4.47 m/s, 157° | - | - |
* Rain latest hour (hover to see other rain measurements)
** Current wind speed in m/s (hover to see current wind gust speed)